FENGYUN 1C DEB

Satellite information

Favourite Embed

Satellite Type and Status

DEBRISIN ORBIT

Key statistics

Satellite FENGYUN 1C DEB at a glance.

Uptime

9554

Days in orbit

Revolutions

≈ 14.2

Per day

Orbit

SSO

Sun Synchronous Orbit

Inclination

99.3

Latest

Satellite identification and parameters

Extended collection of information and parameters for FENGYUN 1C DEB.

Object identification

Identified? True

Debris? True

Object name: FENGYUN 1C DEB

International designator: 1999-025EDL

Object number (NORAD): 37028

Object ID (CCSDS): 37028

Country: PEOPLES REPUBLIC OF CHINA (PRC)

Current information (Y/N): Y

RCS size: SMALL

Orbital parameters

Period: 101.315 minutes

Inclination: 99.251 deg

SMA: 7199.049 km

Apoapsis: 843.733 km

Periapsis: 798.094 km

RAAN: 85.4567 deg

Eccentricy: 0.0031698

Argument of periapsis: 197.275 deg

Mean anomaly: 162.735 deg

Mean motion: 14.21314239 rev/day

Mean motion (dot): 0.00002216 rev/day2

B* drag term: 0.0010327 1/REarth

Two-line elements (TLE)

Creation date: July 5, 2025, 4:36 a.m.

Reference frame: TEME

Reference center: EARTH

Epoch: July 4, 2025, 10:27 a.m. UTC

TLE line 0: 0 FENGYUN 1C DEB

TLE line 1: 1 37028U 99025EDL 25185.43610986 .00002216 00000-0 10327-2 0 9999

TLE line 2: 2 37028 99.2510 85.4567 0031698 197.2750 162.7350 14.21314239581830

Live tracking on map

Real-time ground track for satellite FENGYUN 1C DEB.

In-orbit conjunctions

A list of the most updated potential collisions computed for object FENGYUN 1C DEB.

Target Orbit TCA Probability of collision Miss distance Type
METEOR 1-17 DEB LEO 2025-01-06 01:06:24 0.000117314 91.0 (m) DEBRIS
CZ-6A DEB LEO 2024-10-16 09:29:39 0.0001795829 833.0 (m) DEBRIS
NOAA 16 DEB SSO 2024-09-20 03:07:34 0.0001297451 303.0 (m) DEBRIS
FENGYUN 1C DEB SSO 2024-06-17 14:00:58 0.0002115482 125.0 (m) DEBRIS

Associated space launch

Chinese polar orbiting meteorological satellite

FENGYUN 1C DEB was lifted into orbit during the mission ‘Long March 4B | Feng Yun 1C’, on board a Long March 4B space rocket.

The launch took place on May 10, 1999, 1:33 a.m. from Launch Complex 7.

For more information about the launch, click the button.

Launch to space Long March 4B | Feng Yun 1C
Long March 4B | Feng Yun 1C

Agency: N/A

Status: Launch Successful

Launch date: May 10, 1999, 1:33 a.m. UTC

Rocket: Long March 4B

Launch pad: Launch Complex 7

Location: Taiyuan Satellite Launch Center, People's Republic of China

...

Latest news about this satellite

There are no fresh news available about this satellite. Check back as we update our databases every day.


Newsletter sign-up

Weekly statistics, charts and insights to help you stay on top of the space industry.